Regional Weather Roundup
Issued by NWS

Home | Current Version | Previous Version | Text Only | Print | Product List | Glossary Off
Versions: 1 2 3 4 5 6 7 8 9 10 11 12 13 14 15 16 17 18 19 20 21 22 23 24 25 26 27

000
ASUS45 KSLC 230710
RWRUT

UTAH REGIONAL WEATHER ROUNDUP
NATIONAL WEATHER SERVICE SALT LAKE CITY UT
100 AM MDT SAT JUL 23 2016

UTZ001>011-023>025-230800-

NORTHERN UTAH

CITY           SKY/WX    TMP DP  RH WIND       PRES   REMARKS
BRIGHAM CITY     N/A     73  30  20 NW7       30.09S
HILL AFB       CLEAR     79  39  23 NW6       30.11R
LOGAN          CLEAR     62  42  47 CALM      30.12R
OGDEN          CLEAR     74  41  30 N8        30.08R
PROVO AIRPORT  CLEAR     72  54  53 S7        30.09R
SALT LAKE CITY PTCLDY    77  43  29 SE3       30.06S
VERNAL         CLEAR     68  50  52 VRB3      30.20R
WENDOVER       CLEAR     81  27  13 N16       30.12R
HEBER CITY     CLEAR     61  46  59 SE5       30.18S

$$

UTZ012>022-026-027-230800-

SOUTHERN/CENTRAL UTAH

CITY           SKY/WX    TMP DP  RH WIND       PRES   REMARKS
BLANDING       MOCLDY    71  46  41 CALM      30.31S
BRYCE CANYON   PTCLDY    56  49  77 VRB5      30.39S
CEDAR CITY     CLEAR     73  37  27 S5        30.18S
DELTA          CLEAR     81  30  16 N12       30.08S
MILFORD        CLEAR     78  34  20 NW8G17    30.12R
MOAB/CYNLANDS  PTCLDY    79  52  38 E17G33    30.11F
PRICE          CLEAR     68  49  50 NE3       30.23S
ST GEORGE      SUNNY     90  43  19 E12       29.96S
KANAB          PTCLDY    81  46  30 SW9       30.20S

$$

REGIONAL REPORTS     COLORADO/ARIZONA

CITY           SKY/WX    TMP DP  RH WIND       PRES   REMARKS
CRAIG, CO      CLOUDY    59  46  62 CALM      30.27R
GRAND JUNCTION PTCLDY    74  54  49 SE13      30.19F
RIFLE          CLOUDY    67  55  65 SE7       30.25F
MONTROSE       CLOUDY    69  49  48 E8        30.28F
CORTEZ         CLOUDY    64  48  56 S3        30.26R
PAGE, AZ       MOCLDY    84  46  26 SE6       30.12R
GRAND CANYON   CLOUDY    62  55  77 NE5       30.34F
KINGMAN        MOCLDY    87  45  23 E10       30.03F
FLAGSTAFF      CLOUDY    63  50  62 E5        30.36F

$$

REGIONAL REPORTS    NEVADA/IDAHO/WYOMING

CITY           SKY/WX    TMP DP  RH WIND       PRES   REMARKS
LAS VEGAS, NV  PTCLDY    96  25   8 SW7       29.83S HX  90
ELY            CLEAR     63  13  14 W9        30.27S
ELKO           CLEAR     61  18  18 CALM      30.19S
POCATELLO, ID  CLEAR     71  29  21 SW13      30.13S
BURLEY         CLEAR     59  44  57 S8        30.12R
EVANSTON, WY   CLOUDY    67  29  24 CALM      30.30F
ROCK SPRINGS   CLOUDY    69  36  29 SW13      30.24R
KEMMERER         N/A     61  30  31 CALM      30.31S

$$




USA.gov is the U.S. government's official web portal to all federal, state and local government web resources and services.